When you browse on this site, cookies collect data to enhance your experience and personalize the content and advertising you see.
Visit our Privacy Policy to learn more. By continuing to use the site, you agree to this use of cookies and data.
  • Em Portugal
  • Lista de países
  • Para 7 dias
  • Temperatura da água
  • Mapa do tempo
  • Widgets de tempo
  • user-avatar
    Iniciar Sessão

    Previsão horária em Hrazdan

    Hoje, 1 Junho, Segunda-feira

    Tempo Temperatura Precipitação Vento Pressão Humidade
    00:00 +10°C° 0 mm 2 m/s 611 mmHg 76%
    01:00 +9°C° 0 mm 2 m/s 611 mmHg 75%
    02:00 +9°C° 0 mm 2 m/s 611 mmHg 74%
    03:00 +10°C° 0 mm 1 m/s 611 mmHg 73%
    04:00 +11°C° 0 mm 1 m/s 611 mmHg 73%
    05:00 +12°C° 0 mm 1 m/s 611 mmHg 73%
    06:00 +13°C° 0 mm 1 m/s 612 mmHg 72%
    07:00 +14°C° 0 mm 1 m/s 612 mmHg 64%
    08:00 +16°C° 0 mm 2 m/s 613 mmHg 56%
    09:00 +18°C° 0 mm 2 m/s 614 mmHg 48%
    10:00 +19°C° 0 mm 3 m/s 614 mmHg 45%
    11:00 +20°C° 0 mm 4 m/s 614 mmHg 43%
    12:00 +21°C° 0 mm 4 m/s 614 mmHg 40%
    13:00 +21°C° 0 mm 4 m/s 614 mmHg 40%
    14:00 +21°C° 0 mm 4 m/s 613 mmHg 41%
    15:00 +21°C° 0 mm 4 m/s 613 mmHg 41%
    16:00 +20°C° 0 mm 4 m/s 613 mmHg 46%
    17:00 +19°C° 0 mm 3 m/s 612 mmHg 51%
    18:00 +18°C° 0 mm 3 m/s 612 mmHg 57%
    19:00 +17°C° 0 mm 3 m/s 611 mmHg 55%
    20:00 +15°C° 0 mm 2 m/s 611 mmHg 53%
    21:00 +13°C° 0 mm 2 m/s 611 mmHg 50%
    22:00 +13°C° 0 mm 2 m/s 610 mmHg 51%
    23:00 +12°C° 0 mm 2 m/s 610 mmHg 51%

    Amanhã, 2 Junho, Terça-feira

    Tempo Temperatura Precipitação Vento Pressão Humidade
    00:00 +12°C° 0 mm 1 m/s 610 mmHg 51%
    01:00 +12°C° 0 mm 2 m/s 610 mmHg 52%
    02:00 +12°C° 0 mm 2 m/s 610 mmHg 52%
    03:00 +10°C° 0 mm 2 m/s 610 mmHg 53%
    04:00 +12°C° 0 mm 2 m/s 610 mmHg 56%
    05:00 +13°C° 0 mm 2 m/s 610 mmHg 59%
    06:00 +14°C° 0 mm 2 m/s 610 mmHg 62%
    07:00 +16°C° 0 mm 2 m/s 611 mmHg 56%
    08:00 +18°C° 0 mm 3 m/s 611 mmHg 50%
    09:00 +20°C° 0 mm 4 m/s 612 mmHg 45%
    10:00 +20°C° 0 mm 5 m/s 612 mmHg 44%
    11:00 +21°C° 0 mm 5 m/s 612 mmHg 43%
    12:00 +22°C° 0 mm 6 m/s 612 mmHg 42%
    13:00 +21°C° 0.2 mm 5 m/s 611 mmHg 45%
    14:00 +20°C° 0.2 mm 5 m/s 611 mmHg 48%
    15:00 +20°C° 0.2 mm 4 m/s 610 mmHg 51%
    16:00 +19°C° 0.2 mm 3 m/s 610 mmHg 56%
    17:00 +19°C° 0.2 mm 2 m/s 610 mmHg 61%
    18:00 +18°C° 0.2 mm 2 m/s 610 mmHg 66%
    19:00 +16°C° 0 mm 2 m/s 610 mmHg 68%
    20:00 +15°C° 0 mm 2 m/s 609 mmHg 70%
    21:00 +13°C° 0 mm 2 m/s 608 mmHg 72%
    22:00 +12°C° 0 mm 1 m/s 608 mmHg 71%
    23:00 +12°C° 0 mm 1 m/s 608 mmHg 70%

    Depois de amanhã, 3 Junho, Quarta-feira

    Tempo Temperatura Precipitação Vento Pressão Humidade
    00:00 +12°C° 0 mm 1 m/s 608 mmHg 70%
    01:00 +12°C° 0 mm 1 m/s 608 mmHg 67%
    02:00 +10°C° 0 mm 2 m/s 608 mmHg 64%
    03:00 +10°C° 0 mm 2 m/s 608 mmHg 62%
    04:00 +12°C° 0 mm 2 m/s 609 mmHg 62%
    05:00 +12°C° 0 mm 2 m/s 609 mmHg 62%
    06:00 +13°C° 0 mm 2 m/s 609 mmHg 61%
    07:00 +15°C° 0 mm 2 m/s 610 mmHg 56%
    08:00 +17°C° 0 mm 3 m/s 611 mmHg 50%
    09:00 +19°C° 0 mm 4 m/s 611 mmHg 44%
    10:00 +19°C° 0 mm 3 m/s 611 mmHg 44%
    11:00 +19°C° 0 mm 2 m/s 611 mmHg 45%
    12:00 +20°C° 0 mm 2 m/s 611 mmHg 45%
    13:00 +19°C° 0 mm 3 m/s 611 mmHg 47%
    14:00 +19°C° 0 mm 4 m/s 610 mmHg 49%
    15:00 +19°C° 0 mm 5 m/s 610 mmHg 51%
    16:00 +19°C° 0.1 mm 4 m/s 610 mmHg 55%
    17:00 +18°C° 0.1 mm 2 m/s 610 mmHg 59%
    18:00 +18°C° 0.1 mm 1 m/s 610 mmHg 63%
    19:00 +16°C° 0.1 mm 1 m/s 610 mmHg 65%
    20:00 +14°C° 0.1 mm 2 m/s 610 mmHg 66%
    21:00 +11°C° 0.1 mm 3 m/s 610 mmHg 68%
    22:00 +10°C° 0 mm 2 m/s 610 mmHg 67%
    23:00 +9°C° 0 mm 2 m/s 610 mmHg 65%

    4 Junho, Quinta-feira

    Tempo Temperatura Precipitação Vento Pressão Humidade
    00:00 +8°C° 0 mm 2 m/s 610 mmHg 64%
    01:00 +8°C° 0 mm 2 m/s 610 mmHg 64%
    02:00 +8°C° 0 mm 2 m/s 610 mmHg 65%
    03:00 +8°C° 0 mm 2 m/s 610 mmHg 65%
    04:00 +9°C° 0 mm 2 m/s 610 mmHg 65%
    05:00 +11°C° 0 mm 1 m/s 611 mmHg 65%
    06:00 +11°C° 0 mm 1 m/s 611 mmHg 66%
    07:00 +13°C° 0 mm 2 m/s 612 mmHg 59%
    08:00 +15°C° 0 mm 2 m/s 613 mmHg 52%
    09:00 +17°C° 0 mm 2 m/s 613 mmHg 45%
    10:00 +18°C° 0 mm 2 m/s 613 mmHg 42%
    11:00 +19°C° 0 mm 3 m/s 614 mmHg 40%
    12:00 +20°C° 0 mm 3 m/s 614 mmHg 37%
    13:00 +20°C° 0 mm 3 m/s 614 mmHg 36%
    14:00 +21°C° 0 mm 3 m/s 614 mmHg 36%
    15:00 +21°C° 0 mm 3 m/s 613 mmHg 35%
    16:00 +20°C° 0 mm 3 m/s 613 mmHg 41%
    17:00 +20°C° 0 mm 2 m/s 613 mmHg 47%
    18:00 +20°C° 0 mm 1 m/s 613 mmHg 54%
    19:00 +18°C° 0 mm 1 m/s 613 mmHg 53%
    20:00 +15°C° 0 mm 2 m/s 612 mmHg 53%
    21:00 +12°C° 0 mm 2 m/s 612 mmHg 52%
    22:00 +12°C° 0 mm 2 m/s 612 mmHg 51%
    23:00 +12°C° 0 mm 2 m/s 612 mmHg 50%

    5 Junho, Sexta-feira

    Tempo Temperatura Precipitação Vento Pressão Humidade
    00:00 +10°C° 0 mm 2 m/s 613 mmHg 49%
    01:00 +10°C° 0 mm 2 m/s 613 mmHg 52%
    02:00 +9°C° 0 mm 2 m/s 613 mmHg 54%
    03:00 +9°C° 0 mm 2 m/s 612 mmHg 56%
    04:00 +10°C° 0 mm 2 m/s 613 mmHg 59%
    05:00 +10°C° 0 mm 2 m/s 613 mmHg 62%
    06:00 +12°C° 0 mm 1 m/s 614 mmHg 65%
    07:00 +14°C° 0 mm 2 m/s 614 mmHg 58%
    08:00 +15°C° 0 mm 4 m/s 615 mmHg 52%
    09:00 +16°C° 0 mm 5 m/s 616 mmHg 45%
    10:00 +17°C° 0 mm 5 m/s 616 mmHg 44%
    11:00 +19°C° 0 mm 5 m/s 616 mmHg 43%
    12:00 +19°C° 0 mm 5 m/s 616 mmHg 41%
    13:00 +20°C° 0 mm 5 m/s 616 mmHg 41%
    14:00 +20°C° 0 mm 4 m/s 616 mmHg 40%
    15:00 +20°C° 0 mm 4 m/s 616 mmHg 39%
    16:00 +19°C° 0.1 mm 3 m/s 616 mmHg 46%
    17:00 +19°C° 0.1 mm 2 m/s 615 mmHg 52%
    18:00 +18°C° 0.1 mm 2 m/s 615 mmHg 59%
    19:00 +16°C° 0 mm 2 m/s 615 mmHg 64%
    20:00 +13°C° 0 mm 2 m/s 615 mmHg 69%
    21:00 +10°C° 0 mm 2 m/s 614 mmHg 75%
    22:00 +10°C° 0 mm 2 m/s 614 mmHg 74%
    23:00 +10°C° 0 mm 2 m/s 615 mmHg 74%

    6 Junho, Sábado

    Tempo Temperatura Precipitação Vento Pressão Humidade
    00:00 +9°C° 0 mm 2 m/s 615 mmHg 74%
    01:00 +9°C° 0 mm 2 m/s 615 mmHg 75%
    02:00 +9°C° 0 mm 2 m/s 614 mmHg 75%
    03:00 +9°C° 0 mm 2 m/s 614 mmHg 76%
    04:00 +9°C° 0 mm 2 m/s 615 mmHg 76%
    05:00 +10°C° 0 mm 2 m/s 615 mmHg 77%
    06:00 +12°C° 0 mm 2 m/s 616 mmHg 78%
    07:00 +14°C° 0.1 mm 2 m/s 616 mmHg 73%
    08:00 +15°C° 0.1 mm 2 m/s 617 mmHg 69%
    09:00 +17°C° 0.1 mm 2 m/s 617 mmHg 64%
    10:00 +18°C° 0.5 mm 2 m/s 617 mmHg 62%
    11:00 +18°C° 0.5 mm 2 m/s 617 mmHg 59%
    12:00 +19°C° 0.5 mm 2 m/s 618 mmHg 56%
    13:00 +19°C° 0.8 mm 3 m/s 617 mmHg 58%
    14:00 +19°C° 0.8 mm 3 m/s 617 mmHg 60%
    15:00 +19°C° 0.8 mm 3 m/s 616 mmHg 62%
    16:00 +18°C° 0.5 mm 3 m/s 616 mmHg 67%
    17:00 +17°C° 0.5 mm 3 m/s 616 mmHg 71%
    18:00 +16°C° 0.5 mm 3 m/s 615 mmHg 76%
    19:00 +13°C° 0.2 mm 3 m/s 615 mmHg 79%
    20:00 +13°C° 0.2 mm 2 m/s 615 mmHg 82%
    21:00 +10°C° 0.2 mm 2 m/s 615 mmHg 85%
    22:00 +10°C° 0 mm 2 m/s 615 mmHg 85%
    23:00 +9°C° 0 mm 2 m/s 614 mmHg 84%
    Mostrar mais